{"data":{"norad_id":64390,"intl_designator":"2025-127W","name":"STARLINK-34292","alt_names":[],"object_type":"PAYLOAD","status":"ACTIVE","operator":null,"country":"US","launch_date":"2025-06-13","launch_site_code":"AFETR","launch_vehicle":null,"mission":null,"orbit_class":"UNKNOWN","rcs_meters":null,"size_class":null,"mass_kg":null,"dimensions":null,"purposes":["comms"],"wikipedia_slug":null,"has_3d_model":false,"image_url":null,"decayed_at":null,"tle_current":{"epoch":"2026-09-20T00:13:23.772288Z","epoch_age_seconds":176861,"freshness":"STALE","line1":"1 64390U 25127W   26263.00930292  .00017399  00000+0  63999-3 0  9990","line2":"2 64390  42.9988 162.5399 0000980 269.1000  90.9739 15.27595042 72189","mean_motion":15.27595042,"eccentricity":9.8e-5,"inclination_deg":42.9988,"raan_deg":162.5399,"arg_perigee_deg":269.1,"mean_anomaly_deg":90.9739,"bstar":0.00063999,"rev_number":7218,"period_min":94.26582048307,"perigee_km":482.3316634265,"apogee_km":483.67644707333,"semimajor_km":6861.1410552499,"source":"CELESTRAK","updated_at":"2026-09-21T09:00:35.326039Z"}}}